[keps] orb12124.2l.amsat
Ray Hoad
ray.hoad at mypbmail.com
Thu May 3 21:43:55 PDT 2012
SB KEPS @ AMSAT $ORB12124.N
2Line Orbital Elements 12124.AMSAT
HR AMSAT ORBITAL ELEMENTS FOR AMATEUR SATELLITES IN NASA FORMAT
FROM WA5QGD FORT WORTH,TX May 3, 2012
Send SUBSCRIBE KEPS/UNSUBSCRIBE KEPS to majordomo at amsat.org only
BID: ORB12124.N
DECODE 2-LINE ELSETS WITH THE FOLLOWING KEY:
1 AAAAAU 00 0 0 BBBBB.BBBBBBBB .CCCCCCCC 00000-0 00000-0 0 DDDZ
2 AAAAA EEE.EEEE FFF.FFFF GGGGGGG HHH.HHHH III.IIII JJ.JJJJJJJJKKKKKZ
KEY: A-CATALOGNUM B-EPOCHTIME C-DECAY D-ELSETNUM E-INCLINATION F-RAAN
G-ECCENTRICITY H-ARGPERIGEE I-MNANOM J-MNMOTION K-ORBITNUM Z-CHECKSUM
TO ALL RADIO AMATEURS BT
AO-07
1 07530U 74089B 12123.57638698 -.00000027 00000-0 10000-3 0 03723
2 07530 101.4013 122.5493 0012071 012.8884 347.2492 12.53589002714339
FO-29
1 24278U 96046B 12123.85437848 -.00000007 00000-0 27055-4 0 08422
2 24278 098.5818 230.4468 0351021 146.5653 215.8193 13.52982018775820
SO-33
1 25509U 98061B 12124.69081246 .00000447 00000-0 75473-4 0 2236
2 25509 031.4332 225.4989 0352356 174.0112 186.4876 14.28721209706287
RS-22
1 27939U 03042A 12124.70886769 .00000413 00000-0 87240-4 0 3212
2 27939 097.8166 327.8014 0014318 049.2108 311.0338 14.63991999459372
VO-52
1 28650U 05017B 12123.57624796 .00000772 00000-0 10097-3 0 00929
2 28650 097.6018 156.7565 0026284 188.2184 171.8629 14.82863615378212
HO-68
1 36122U 09072B 12124.82712644 -.00000044 00000-0 00000 0 0 4304
2 36122 100.3651 185.0611 0007309 208.1779 151.8939 13.16294939114556
UO-11
1 14781U 84021B 12123.76877473 .00000430 00000-0 63203-4 0 08662
2 14781 097.9566 183.6784 0008949 173.4305 186.7024 14.80406638513215
AO-16
1 20439U 90005D 12124.85970168 .00000181 00000-0 83101-4 0 4572
2 20439 098.4265 069.4829 0010231 294.4805 065.5311 14.32045133163659
LO-19
1 20442U 90005G 12123.98125887 .00000156 00000-0 73518-4 0 03964
2 20442 098.3920 071.7930 0011023 286.8798 073.1178 14.32263575163710
AO-27
1 22825U 93061C 12123.88821644 .00000129 00000-0 67590-4 0 936
2 22825 098.5695 067.4146 0009232 055.4095 304.7956 14.29452718970008
IO-26
1 22826U 93061D 12123.89775932 .00000184 00000-0 88554-4 0 8433
2 22826 098.5661 067.8066 0009862 049.5091 310.6945 14.29726005970137
GO-32
1 25397U 98043D 12123.49131403 .00000058 00000-0 43876-4 0 07672
2 25397 098.3595 104.4584 0002171 069.1963 290.9445 14.23271170717521
NO-44
1 26931U 01043C 12123.78286571 -.00000102 00000-0 -72585-5 0 305
2 26931 067.0518 237.3593 0007330 270.5889 089.4377 14.29788357552750
SO-50
1 27607U 02058C 12123.86636391 .00000645 00000-0 11793-3 0 07524
2 27607 064.5577 072.7594 0084403 257.4206 101.7451 14.72339778503296
CO-55
1 27844U 03031E 12123.57651556 .00000295 00000-0 15617-3 0 3646
2 27844 098.7031 132.6178 0010119 359.5348 000.5809 14.21005118458419
CO-57
1 27848U 03031J 12124.55816570 .00000252 00000-0 13685-3 0 3161
2 27848 098.7111 132.8984 0010125 002.7918 357.3325 14.20759572458499
AO-51
1 28375U 04025K 12123.87502217 .00000167 00000-0 62583-4 0 2554
2 28375 098.1432 091.2703 0082937 177.7122 182.4478 14.40933001412244
CP3
1 31129U 07012N 12124.59770282 .00000490 00000-0 12183-3 0 1562
2 31129 097.8840 134.9996 0099949 262.0652 096.9155 14.53020717267503
CO-65
1 32785U 08021C 12123.63138628 .00001088 00000-0 14053-3 0 02976
2 32785 097.8045 185.7545 0013999 207.6395 152.4029 14.82878543217012
PRISM
1 33493U 09002B 12124.68546923 .00003086 00000-0 37911-3 0 6635
2 33493 098.1646 264.2126 0020178 082.3366 278.0104 14.83676822177157
SOHLA-1
1 33496U 09002E 12124.85911462 .00000250 00000-0 49966-4 0 7175
2 33496 098.1003 236.8999 0006636 173.8339 186.2948 14.69938561175732
SO-67
1 35870U 09049F 12124.92081140 .00004020 00000-0 17152-3 0 9221
2 35870 097.2371 162.2263 0001984 017.5786 099.7352 15.23458112145874
TISAT-1
1 36799U 10035E 12124.77584828 .00001832 00000-0 23859-3 0 9390
2 36799 098.0632 200.7856 0013984 320.8460 039.1687 14.81806854 97915
STUDSAT
1 36801U 10035G 12123.83166135 .00004768 00000-0 58021-3 0 03953
2 36801 098.0697 200.3587 0012007 308.8248 051.1888 14.83885891097795
FO-69
1 37227U 0 12124.33969264 .00000625 00000-0 96269-4 0 01725
2 37227 071.9699 050.9175 0015628 040.3476 319.8841 14.77031316029476
FO-70
1 37380U 0 12124.33772588 .00000659 00000-0 10158-3 0 01747
2 37380 071.9731 051.4244 0016246 037.3123 322.9161 14.76785017029369
ALMASAT-1
1 38078U 12006B 12124.80795957 .00020675 00000-0 57423-3 0 1777
2 38078 069.4953 057.6968 0764395 304.0942 048.9780 14.08040818 11306
XATCOBEO
1 38082U 12006F 12124.86158867 .00047289 00000-0 11721-2 0 2097
2 38082 069.4917 056.7211 0749530 303.5789 049.5821 14.13417813 11323
NOAA-10
1 16969U 86073A 12123.95229286 .00000137 00000-0 73527-4 0 09154
2 16969 098.5854 153.8018 0012564 011.3446 348.8016 14.27546391333411
NOAA-11
1 19531U 88089A 12123.81796870 -.00000261 00000-0 -11226-3 0 09083
2 19531 098.7313 209.9284 0011424 358.0385 002.0749 14.14963341218098
NOAA-12
1 21263U 91032A 12123.98492768 -.00000014 00000-0 13095-4 0 04084
2 21263 098.7325 145.8572 0013606 336.5909 023.4654 14.25491008090112
MET-3/5
1 21655U 91056A 12123.79611831 .00000173 00000-0 41634-3 0 3980
2 21655 082.5570 184.2520 0014597 079.0010 281.2753 13.17036893995926
MET-2/21
1 22782U 93055A 12124.75696704 .00000140 00000-0 11367-3 0 4077
2 22782 082.5478 067.7618 0020906 278.4673 081.4122 13.83682020943025
OKEAN-4
1 23317U 94066A 12123.91590612 .00000945 00000-0 11088-3 0 08777
2 23317 082.5396 073.5221 0022483 136.9738 223.3238 14.83724330948095
NOAA-14
1 23455U 94089A 12123.96913788 .00000131 00000-0 92215-4 0 08895
2 23455 098.8270 208.0336 0010316 087.6408 272.5944 14.13894733894402
NOAA-15
1 25338U 98030A 12123.55957976 .00000404 00000-0 19132-3 0 02476
2 25338 098.6883 110.9054 0009765 238.9236 121.0980 14.25062281726350
RESURS
1 25394U 98043A 12123.94944476 .00000090 00000-0 56867-4 0 00797
2 25394 098.3189 114.5747 0002210 036.3623 323.7708 14.24285573717961
FENGYUN1
1 25730U 99025A 12123.92615675 .00002053 00000-0 11983-2 0 5969
2 25730 098.8447 083.7039 0019462 129.1478 231.1408 14.09457858668238
OKEAN-0
1 25860U 99039A 12124.87059330 .00000570 00000-0 93788-4 0 6174
2 25860 097.9319 088.4321 0001849 051.8369 308.3004 14.74174263688044
NOAA-16
1 26536U 00055A 12123.56855283 -.00000041 00000-0 25944-5 0 07323
2 26536 099.0992 164.9773 0010206 208.1936 151.8689 14.12730914598593
NOAA-17
1 27453U 02032A 12123.71561313 .00000001 00000-0 18282-4 0 06908
2 27453 098.3402 153.0423 0010763 292.2490 067.7545 14.24423518512288
NOAA-18
1 28654U 05018A 12123.77449752 .00000229 00000-0 15101-3 0 01652
2 28654 099.0421 081.4936 0013480 283.8183 076.1453 14.11643073358150
NOAA-19
1 33591U 09005A 12123.77223179 -.00000047 00000-0 -20068-5 0 03574
2 33591 098.8613 064.1300 0014304 145.8556 214.3542 14.11328053166606
HUBBLE
1 20580U 90037B 12123.15796131 .00000947 00000-0 57246-4 0 9927
2 20580 028.4688 084.7353 0003329 282.7553 077.2543 15.02426303 7801
ISS
1 25544U 98067A 12125.08603553 .00011866 00000-0 16342-3 0 4896
2 25544 051.6438 342.9169 0009550 315.3885 122.7613 15.57669224771144
CO-58
1 28895U 05043F 12124.82865642 .00000339 00000-0 78824-4 0 1658
2 28895 097.9227 353.0386 0016535 291.6668 068.2777 14.60587180347186
FALCON
1 30776U 07006E 12123.62104176 .00003800 00000-0 24965-3 0 03547
2 30776 035.4349 195.0926 0002175 302.8298 057.2209 15.07239384283372
MAST
1 31126U 07012K 12124.90898644 .00000564 00000-0 13641-3 0 4483
2 31126 097.8763 138.5996 0092709 248.6555 110.4731 14.54125087267838
CAPE1
1 31130U 07012P 12124.70099925 .00000559 00000-0 13787-3 0 4598
2 31130 097.8839 134.8117 0100115 262.3293 096.6509 14.52892588267310
COMPASS
1 32787U 08021E 12123.62120748 .00002271 00000-0 27978-3 0 02921
2 32787 097.8026 185.9608 0014688 206.1886 153.8583 14.83828541217058
AAUSAT2
1 32788U 08021F 12124.81410132 .00002191 00000-0 26822-3 0 2831
2 32788 097.8053 187.4846 0014251 200.9564 159.1048 14.84139445217257
DO-64
1 32789U 08021G 12123.75936439 .00003603 00000-0 42272-3 0 03014
2 32789 097.8159 188.3071 0014388 202.7509 157.3021 14.85500964217132
CO-66
1 32791U 08021J 12123.66080132 .00001496 00000-0 18899-3 0 02832
2 32791 097.8027 185.7773 0015234 204.3836 155.6667 14.83273977216990
RS-30
1 32953U 08025A 12124.61897675 .00000010 00000-0 00000 0 0 7477
2 32953 082.5013 322.8610 0019667 046.8677 313.4041 12.43022956179021
TACSAT-3
1 35001U 09028A 12121.72616188 .15204951 73582-5 42606-3 0 00016
2 35001 040.4259 351.8840 0007146 275.2650 085.0693 16.45157000166990
PHARMSAT
1 35002U 09028B 12124.89088708 .00080998 00000-0 50429-3 0 8870
2 35002 040.4650 349.2312 0006128 266.3474 093.6651 15.75865552167311
METEOR-M
1 35865U 09049A 12124.81608747 .00000008 00000-0 23252-4 0 3787
2 35865 098.6583 179.9643 0002457 160.2227 199.9040 14.21861082136291
RS-38
1 35869U 09049E 12124.77337353 .00000036 00000-0 35750-4 0 3875
2 35869 098.6542 179.9254 0004548 170.6375 189.4886 14.22067030136306
JUGNU
1 37839U 11058B 12124.58066929 .00000619 00000-0 19019-3 0 1418
2 37839 019.9607 268.4937 0018855 088.8523 271.3979 14.12048722 28935
SRMSAT
1 37841U 11058D 12124.78678427 .00000264 00000-0 00000 0 0 1428
2 37841 019.9745 271.2223 0011139 061.2528 298.9144 14.10134668 28919
RAX-2
1 37853U 11061D 12123.95477718 .00004821 00000-0 38892-3 0 01778
2 37853 101.7158 143.5585 0249112 119.9210 242.6981 14.79538602027718
AUBIESAT
1 37854U 11061E 12124.79962586 .00004664 00000-0 37057-3 0 1681
2 37854 101.7185 144.9774 0250449 116.8937 245.8094 14.79901000 27829
HRBE
1 37855U 11061F 12124.80925111 .00004533 00000-0 36220-3 0 1672
2 37855 101.7191 144.9603 0250191 116.9367 245.7622 14.79774256 27827
RS-39
1 38051U 11062C 12124.85726972 .00006991 00000-0 30188-3 0 3029
2 38051 051.6310 010.9781 0010526 237.5295 198.8815 15.23540625 15210
E-STAR
1 38079U 12006C 12124.87187831 .00039192 00000-0 95014-3 0 1964
2 38079 069.5050 056.7849 0755793 303.7276 049.3859 14.12557633 11329
GOLIAT
1 38085U 12006J 12124.83391227 .00035221 00000-0 87998-3 0 1852
2 38085 069.4849 056.9883 0757240 303.7440 049.3635 14.11652581 11311
/EX
More information about the Keps
mailing list